Tracking 31027 objects as of 19-Jul-2025
HD Live streaming from Space Station
objects crossing your sky now

FENGYUN 1C DEB

Track FENGYUN 1C DEB now!
10-day predictions


NORAD ID: 31033
Int'l Code: 1999-025BEB
Perigee: 698.1 km
Apogee: 918.5 km
Inclination: 98.4 °
Period: 100.9 minutes
Semi major axis: 7179 km
RCS: 0.0023 m2 (small)
Launch date: May 10, 1999
Source: People's Republic of China (PRC)
Launch site: Taiyaun Space Center, China (TSC)

Note: This is SATELLITE DEBRIS
Your satellite tracking list
FENGYUN 1C DEB
Track 1 satellite(s)




NASA's NSSDC Master Catalog

Two Line Element Set (TLE):
1 31033U 99025BEB 25199.43155366  .00000267  00000-0  11209-3 0  9995
2 31033  98.4188 182.9509 0153510 183.3304 333.8067 14.27190810952448
Source of the keplerian elements: AFSPC